When you browse on this site, cookies collect data to enhance your experience and personalize the content and advertising you see.
Visit our Privacy Policy to learn more. By continuing to use the site, you agree to this use of cookies and data.

Meteo orario Konigswinter

Oggi, 13 Luglio, Lunedi

Tempo Temperatura Precipitazioni Vento Pressione Umidità
00:00 +14°C° 0 mm 1 m/s 764 mm Hg 81%
01:00 +14°C° 0 mm 1 m/s 763 mm Hg 82%
02:00 +14°C° 0 mm 1 m/s 763 mm Hg 83%
03:00 +13°C° 0 mm 1 m/s 763 mm Hg 84%
04:00 +15°C° 0 mm 1 m/s 763 mm Hg 80%
05:00 +16°C° 0 mm 1 m/s 763 mm Hg 75%
06:00 +18°C° 0 mm 1 m/s 763 mm Hg 71%
07:00 +20°C° 0 mm 1 m/s 762 mm Hg 63%
08:00 +22°C° 0 mm 1 m/s 762 mm Hg 56%
09:00 +25°C° 0 mm 1 m/s 762 mm Hg 48%
10:00 +26°C° 0 mm 1 m/s 762 mm Hg 44%
11:00 +27°C° 0 mm 1 m/s 761 mm Hg 41%
12:00 +28°C° 0 mm 1 m/s 761 mm Hg 37%
13:00 +28°C° 0 mm 1 m/s 761 mm Hg 38%
14:00 +27°C° 0 mm 1 m/s 760 mm Hg 39%
15:00 +27°C° 0 mm 1 m/s 759 mm Hg 40%
16:00 +26°C° 0 mm 1 m/s 759 mm Hg 46%
17:00 +25°C° 0 mm 1 m/s 759 mm Hg 51%
18:00 +24°C° 0 mm 1 m/s 759 mm Hg 57%
19:00 +23°C° 0 mm 1 m/s 759 mm Hg 60%
20:00 +21°C° 0 mm 1 m/s 759 mm Hg 63%
21:00 +20°C° 0 mm 1 m/s 759 mm Hg 66%
22:00 +19°C° 0 mm 1 m/s 758 mm Hg 69%
23:00 +18°C° 0 mm 1 m/s 758 mm Hg 73%

Domani, 14 Luglio, Martedi

Tempo Temperatura Precipitazioni Vento Pressione Umidità
00:00 +16°C° 0 mm 1 m/s 758 mm Hg 76%
01:00 +16°C° 0 mm 1 m/s 758 mm Hg 79%
02:00 +15°C° 0 mm 1 m/s 757 mm Hg 81%
03:00 +15°C° 0 mm 1 m/s 757 mm Hg 83%
04:00 +15°C° 0 mm 0 m/s 757 mm Hg 79%
05:00 +16°C° 0 mm 0 m/s 757 mm Hg 74%
06:00 +17°C° 0 mm 0 m/s 757 mm Hg 69%
07:00 +19°C° 0 mm 0 m/s 757 mm Hg 63%
08:00 +21°C° 0 mm 0 m/s 756 mm Hg 57%
09:00 +24°C° 0 mm 1 m/s 756 mm Hg 51%
10:00 +24°C° 0.1 mm 1 m/s 756 mm Hg 52%
11:00 +24°C° 0.1 mm 2 m/s 756 mm Hg 54%
12:00 +24°C° 0.1 mm 3 m/s 756 mm Hg 55%
13:00 +21°C° 0.1 mm 3 m/s 755 mm Hg 60%
14:00 +20°C° 0.1 mm 3 m/s 755 mm Hg 66%
15:00 +18°C° 0.1 mm 3 m/s 755 mm Hg 71%
16:00 +17°C° 0.1 mm 2 m/s 755 mm Hg 74%
17:00 +17°C° 0.1 mm 2 m/s 755 mm Hg 78%
18:00 +16°C° 0.1 mm 1 m/s 755 mm Hg 81%
19:00 +15°C° 0.2 mm 1 m/s 755 mm Hg 84%
20:00 +15°C° 0.2 mm 1 m/s 755 mm Hg 86%
21:00 +14°C° 0.2 mm 0 m/s 755 mm Hg 89%
22:00 +15°C° 0.5 mm 1 m/s 755 mm Hg 90%
23:00 +15°C° 0.5 mm 1 m/s 755 mm Hg 92%

Dopodomani, 15 Luglio, Mercoledi

Tempo Temperatura Precipitazioni Vento Pressione Umidità
00:00 +15°C° 0.5 mm 1 m/s 755 mm Hg 94%
01:00 +15°C° 0.3 mm 1 m/s 755 mm Hg 94%
02:00 +15°C° 0.3 mm 2 m/s 754 mm Hg 94%
03:00 +14°C° 0.3 mm 2 m/s 754 mm Hg 94%
04:00 +14°C° 0.1 mm 2 m/s 754 mm Hg 91%
05:00 +14°C° 0.1 mm 2 m/s 755 mm Hg 89%
06:00 +14°C° 0.1 mm 2 m/s 755 mm Hg 87%
07:00 +16°C° 0 mm 2 m/s 755 mm Hg 79%
08:00 +17°C° 0 mm 2 m/s 755 mm Hg 72%
09:00 +18°C° 0 mm 3 m/s 755 mm Hg 65%
10:00 +19°C° 0.1 mm 3 m/s 755 mm Hg 61%
11:00 +20°C° 0.1 mm 3 m/s 755 mm Hg 57%
12:00 +20°C° 0.1 mm 3 m/s 755 mm Hg 53%
13:00 +21°C° 0.1 mm 3 m/s 755 mm Hg 54%
14:00 +21°C° 0.1 mm 3 m/s 755 mm Hg 54%
15:00 +21°C° 0.1 mm 3 m/s 755 mm Hg 54%
16:00 +20°C° 0.1 mm 3 m/s 755 mm Hg 59%
17:00 +20°C° 0.1 mm 2 m/s 755 mm Hg 63%
18:00 +19°C° 0.1 mm 2 m/s 756 mm Hg 68%
19:00 +18°C° 0 mm 2 m/s 756 mm Hg 72%
20:00 +18°C° 0 mm 1 m/s 757 mm Hg 76%
21:00 +15°C° 0 mm 1 m/s 757 mm Hg 81%
22:00 +15°C° 0 mm 1 m/s 757 mm Hg 82%
23:00 +15°C° 0 mm 1 m/s 757 mm Hg 83%

16 Luglio, Giovedi

Tempo Temperatura Precipitazioni Vento Pressione Umidità
00:00 +15°C° 0 mm 1 m/s 758 mm Hg 84%
01:00 +14°C° 0 mm 1 m/s 758 mm Hg 86%
02:00 +14°C° 0 mm 1 m/s 758 mm Hg 88%
03:00 +13°C° 0 mm 1 m/s 758 mm Hg 90%
04:00 +14°C° 0 mm 1 m/s 758 mm Hg 88%
05:00 +15°C° 0 mm 1 m/s 758 mm Hg 85%
06:00 +15°C° 0 mm 1 m/s 758 mm Hg 82%
07:00 +17°C° 0 mm 2 m/s 758 mm Hg 76%
08:00 +18°C° 0 mm 2 m/s 758 mm Hg 70%
09:00 +20°C° 0 mm 2 m/s 758 mm Hg 63%
10:00 +19°C° 0.2 mm 3 m/s 758 mm Hg 67%
11:00 +19°C° 0.2 mm 3 m/s 758 mm Hg 70%
12:00 +19°C° 0.2 mm 3 m/s 758 mm Hg 74%
13:00 +20°C° 0.1 mm 3 m/s 758 mm Hg 71%
14:00 +20°C° 0.1 mm 3 m/s 758 mm Hg 68%
15:00 +21°C° 0.1 mm 3 m/s 758 mm Hg 65%
16:00 +20°C° 0.1 mm 3 m/s 758 mm Hg 69%
17:00 +20°C° 0.1 mm 3 m/s 758 mm Hg 72%
18:00 +19°C° 0.1 mm 2 m/s 758 mm Hg 76%
19:00 +18°C° 0 mm 2 m/s 758 mm Hg 81%
20:00 +18°C° 0 mm 1 m/s 758 mm Hg 86%
21:00 +15°C° 0 mm 1 m/s 759 mm Hg 91%
22:00 +15°C° 0 mm 1 m/s 759 mm Hg 92%
23:00 +15°C° 0 mm 1 m/s 759 mm Hg 92%

17 Luglio, Venerdi

Tempo Temperatura Precipitazioni Vento Pressione Umidità
00:00 +13°C° 0 mm 0 m/s 759 mm Hg 93%
01:00 +13°C° 0 mm 0 m/s 759 mm Hg 93%
02:00 +14°C° 0 mm 1 m/s 759 mm Hg 94%
03:00 +13°C° 0 mm 1 m/s 759 mm Hg 94%
04:00 +14°C° 0 mm 1 m/s 759 mm Hg 92%
05:00 +15°C° 0 mm 1 m/s 759 mm Hg 90%
06:00 +16°C° 0 mm 1 m/s 760 mm Hg 88%
07:00 +19°C° 0.1 mm 1 m/s 760 mm Hg 80%
08:00 +19°C° 0.1 mm 2 m/s 760 mm Hg 71%
09:00 +21°C° 0.1 mm 2 m/s 760 mm Hg 63%
10:00 +23°C° 0 mm 2 m/s 760 mm Hg 59%
11:00 +23°C° 0 mm 2 m/s 760 mm Hg 54%
12:00 +24°C° 0 mm 3 m/s 759 mm Hg 49%
13:00 +24°C° 0 mm 3 m/s 759 mm Hg 48%
14:00 +25°C° 0 mm 3 m/s 759 mm Hg 47%
15:00 +25°C° 0 mm 3 m/s 759 mm Hg 46%
16:00 +24°C° 0 mm 3 m/s 759 mm Hg 51%
17:00 +23°C° 0 mm 2 m/s 759 mm Hg 56%
18:00 +23°C° 0 mm 2 m/s 759 mm Hg 60%
19:00 +20°C° 0 mm 2 m/s 759 mm Hg 67%
20:00 +19°C° 0 mm 1 m/s 760 mm Hg 74%
21:00 +16°C° 0 mm 1 m/s 760 mm Hg 81%
22:00 +16°C° 0 mm 1 m/s 760 mm Hg 83%
23:00 +15°C° 0 mm 1 m/s 760 mm Hg 85%

18 Luglio, Sabato

Tempo Temperatura Precipitazioni Vento Pressione Umidità
00:00 +14°C° 0 mm 0 m/s 760 mm Hg 87%
01:00 +13°C° 0 mm 0 m/s 760 mm Hg 88%
02:00 +13°C° 0 mm 0 m/s 760 mm Hg 88%
03:00 +13°C° 0 mm 0 m/s 760 mm Hg 89%
04:00 +14°C° 0 mm 0 m/s 760 mm Hg 85%
05:00 +15°C° 0 mm 0 m/s 760 mm Hg 81%
06:00 +17°C° 0 mm 0 m/s 760 mm Hg 77%
07:00 +19°C° 0 mm 0 m/s 760 mm Hg 69%
08:00 +21°C° 0 mm 0 m/s 760 mm Hg 62%
09:00 +25°C° 0 mm 1 m/s 759 mm Hg 54%
10:00 +26°C° 0 mm 1 m/s 759 mm Hg 51%
11:00 +27°C° 0 mm 1 m/s 759 mm Hg 47%
12:00 +28°C° 0 mm 1 m/s 759 mm Hg 44%
13:00 +27°C° 0 mm 1 m/s 758 mm Hg 45%
14:00 +27°C° 0 mm 1 m/s 758 mm Hg 47%
15:00 +27°C° 0 mm 1 m/s 758 mm Hg 48%
16:00 +26°C° 0 mm 1 m/s 758 mm Hg 52%
17:00 +26°C° 0 mm 1 m/s 757 mm Hg 56%
18:00 +25°C° 0 mm 1 m/s 757 mm Hg 60%
19:00 +23°C° 0 mm 1 m/s 758 mm Hg 65%
20:00 +22°C° 0 mm 1 m/s 758 mm Hg 70%
21:00 +20°C° 0 mm 1 m/s 758 mm Hg 75%
22:00 +19°C° 0 mm 1 m/s 758 mm Hg 78%
23:00 +19°C° 0 mm 1 m/s 758 mm Hg 80%
Mostrare altro